sat.trackr.live / text

‹ back to catalog

STARLINK-32284

NORAD 61005 · 2024-158R

PAYLOAD ACTIVE UNKNOWN

§ Identity

Operator
Country
US
Launch date
2024-09-05
Launch site
AFETR
Launch vehicle
Mass (kg)
RCS (m²)

Purposes: comms

External: N2YO · Heavens-Above · Gunter

§ Orbital elements

Epoch: 2026-05-25T04:42:58.919328Z

Period
94.11 min
Inclination
53.1602°
Eccentricity
0.0001216
Mean motion
15.30196800 rev/d
Perigee alt
474.4 km
Apogee alt
476.1 km
Semi-major
6,853.4 km
B*
2.9383e-5
RAAN
70.2469°
Arg perigee
81.1742°
Mean anomaly
278.9396°
Rev number
9,729

§ Raw data

STARLINK-322841 61005U 24158R   26145.19651527  .00000511  00000+0  29383-4 0  99912 61005  53.1602  70.2469 0001216  81.1742 278.9396 15.30196800 97296

JSON: /api/v1/satellites/61005 · /tle

For live sub-satellite position, see the globe view (requires WebGL).

§ Visibility from observer

Set your observer location to see the next 7 days of passes ≥ 10°. The values pass through the URL so the page stays shareable.

No JS? Fill the form by hand. The geolocation button needs JavaScript.